Time,TemperatureF,DewpointF,PressureIn,WindDirection,WindDirectionDegrees,WindSpeedMPH,WindSpeedGustMPH,Humidity,HourlyPrecipIn,Conditions,Clouds,dailyrainin,SolarRadiationWatts/m^2,SoftwareType,DateUTC
2015-09-04 00:05:00,71.7,66.6,29.07,North,32767,0.0,0.0,84,0.00,,,0.00,0,Wunderground v.1.15,2015-09-04 04:05:00,
2015-09-04 00:10:00,71.5,66.8,29.08,North,32767,0.0,0.0,85,0.00,,,0.00,0,Wunderground v.1.15,2015-09-04 04:10:00,
2015-09-04 00:15:00,71.6,66.8,29.08,North,32767,0.0,0.0,85,0.00,,,0.00,0,Wunderground v.1.15,2015-09-04 04:15:00,
2015-09-04 00:21:00,71.4,66.7,29.08,North,32767,0.0,0.0,85,0.00,,,0.00,0,Wunderground v.1.15,2015-09-04 04:21:00,
2015-09-04 00:27:00,71.3,66.6,29.08,North,32767,0.0,0.0,85,0.00,,,0.00,0,Wunderground v.1.15,2015-09-04 04:27:00,
2015-09-04 00:32:00,71.2,66.8,29.08,North,32767,0.0,0.0,86,0.00,,,0.00,0,Wunderground v.1.15,2015-09-04 04:32:00,
2015-09-04 00:37:00,71.0,66.6,29.08,North,32767,0.0,0.0,86,0.00,,,0.00,0,Wunderground v.1.15,2015-09-04 04:37:00,
2015-09-04 00:42:00,70.9,66.8,29.08,North,32767,0.0,0.0,87,0.00,,,0.00,0,Wunderground v.1.15,2015-09-04 04:42:00,
2015-09-04 00:48:00,71.0,66.9,29.08,North,32767,0.0,0.0,87,0.00,,,0.00,0,Wunderground v.1.15,2015-09-04 04:48:00,
2015-09-04 00:53:00,71.0,66.9,29.08,North,32767,0.0,0.0,87,0.00,,,0.00,0,Wunderground v.1.15,2015-09-04 04:53:00,
2015-09-04 00:58:00,71.0,66.9,29.08,North,32767,0.0,0.0,87,0.00,,,0.00,0,Wunderground v.1.15,2015-09-04 04:58:00,
2015-09-04 01:04:00,70.8,66.7,29.08,North,32767,0.0,0.0,87,0.00,,,0.00,0,Wunderground v.1.15,2015-09-04 05:04:00,
2015-09-04 01:09:00,70.8,67.1,29.08,North,32767,0.0,0.0,88,0.00,,,0.00,0,Wunderground v.1.15,2015-09-04 05:09:00,
2015-09-04 01:14:00,70.7,67.0,29.08,North,32767,0.0,0.0,88,0.00,,,0.00,0,Wunderground v.1.15,2015-09-04 05:14:00,
2015-09-04 01:19:00,70.7,67.0,29.08,North,32767,0.0,0.0,88,0.00,,,0.00,0,Wunderground v.1.15,2015-09-04 05:19:00,
2015-09-04 01:25:00,70.8,67.1,29.07,North,32767,0.0,0.0,88,0.00,,,0.00,0,Wunderground v.1.15,2015-09-04 05:25:00,
2015-09-04 01:30:00,70.8,67.1,29.07,North,32767,0.0,0.0,88,0.00,,,0.00,0,Wunderground v.1.15,2015-09-04 05:30:00,
2015-09-04 01:35:00,70.8,67.4,29.08,North,32767,0.0,0.0,89,0.00,,,0.00,0,Wunderground v.1.15,2015-09-04 05:35:00,
2015-09-04 01:40:00,70.7,67.3,29.08,North,32767,0.0,0.0,89,0.00,,,0.00,0,Wunderground v.1.15,2015-09-04 05:40:00,
2015-09-04 01:46:00,70.6,67.2,29.08,North,32767,0.0,0.0,89,0.00,,,0.00,0,Wunderground v.1.15,2015-09-04 05:46:00,
2015-09-04 01:52:00,70.5,67.1,29.08,North,32767,0.0,0.0,89,0.00,,,0.00,0,Wunderground v.1.15,2015-09-04 05:52:00,
2015-09-04 01:57:00,70.4,67.0,29.07,North,32767,0.0,0.0,89,0.00,,,0.00,0,Wunderground v.1.15,2015-09-04 05:57:00,
2015-09-04 02:02:00,70.4,67.0,29.07,North,32767,0.0,0.0,89,0.00,,,0.00,0,Wunderground v.1.15,2015-09-04 06:02:00,
2015-09-04 02:08:00,70.5,67.1,29.08,North,32767,0.0,0.0,89,0.00,,,0.00,0,Wunderground v.1.15,2015-09-04 06:08:00,
2015-09-04 02:13:00,70.4,67.0,29.08,North,32767,0.0,0.0,89,0.00,,,0.00,0,Wunderground v.1.15,2015-09-04 06:13:00,
2015-09-04 02:18:00,70.2,66.8,29.07,North,32767,0.0,0.0,89,0.00,,,0.00,0,Wunderground v.1.15,2015-09-04 06:18:00,
2015-09-04 02:23:00,70.0,66.6,29.07,North,32767,0.0,0.0,89,0.00,,,0.00,0,Wunderground v.1.15,2015-09-04 06:23:00,
2015-09-04 02:28:00,69.8,66.7,29.07,North,32767,0.0,0.0,90,0.00,,,0.00,0,Wunderground v.1.15,2015-09-04 06:28:00,
2015-09-04 02:33:00,69.7,66.6,29.08,North,32767,0.0,0.0,90,0.00,,,0.00,0,Wunderground v.1.15,2015-09-04 06:33:00,
2015-09-04 02:38:00,69.6,66.5,29.07,North,32767,0.0,0.0,90,0.00,,,0.00,0,Wunderground v.1.15,2015-09-04 06:38:00,
2015-09-04 02:43:00,69.6,66.9,29.07,North,32767,0.0,0.0,91,0.00,,,0.00,0,Wunderground v.1.15,2015-09-04 06:43:00,
2015-09-04 02:48:00,69.4,66.7,29.08,North,32767,0.0,0.0,91,0.00,,,0.00,0,Wunderground v.1.15,2015-09-04 06:48:00,
2015-09-04 02:53:00,69.3,66.6,29.08,North,32767,0.0,0.0,91,0.00,,,0.00,0,Wunderground v.1.15,2015-09-04 06:53:00,
2015-09-04 03:00:00,69.2,66.5,29.07,North,32767,0.0,0.0,91,0.00,,,0.00,0,Wunderground v.1.15,2015-09-04 07:00:00,
2015-09-04 03:05:00,69.1,66.4,29.07,North,32767,0.0,0.0,91,0.00,,,0.00,0,Wunderground v.1.15,2015-09-04 07:05:00,
2015-09-04 03:11:00,69.2,66.8,29.08,North,32767,0.0,0.0,92,0.00,,,0.00,0,Wunderground v.1.15,2015-09-04 07:11:00,
2015-09-04 03:18:00,69.2,66.8,29.07,North,32767,0.0,0.0,92,0.00,,,0.00,0,Wunderground v.1.15,2015-09-04 07:18:00,
2015-09-04 03:23:00,69.2,66.8,29.07,North,32767,0.0,0.0,92,0.00,,,0.00,0,Wunderground v.1.15,2015-09-04 07:23:00,
2015-09-04 03:29:00,69.3,66.9,29.08,North,32767,0.0,0.0,92,0.00,,,0.00,0,Wunderground v.1.15,2015-09-04 07:29:00,
2015-09-04 03:34:00,69.3,66.9,29.08,North,32767,0.0,0.0,92,0.00,,,0.00,0,Wunderground v.1.15,2015-09-04 07:34:00,
2015-09-04 03:39:00,69.4,67.0,29.08,North,32767,0.0,0.0,92,0.00,,,0.00,0,Wunderground v.1.15,2015-09-04 07:39:00,
2015-09-04 03:46:00,69.5,67.1,29.08,North,32767,0.0,0.0,92,0.00,,,0.00,0,Wunderground v.1.15,2015-09-04 07:46:00,
2015-09-04 03:51:00,69.5,67.1,29.09,North,32767,0.0,0.0,92,0.00,,,0.00,0,Wunderground v.1.15,2015-09-04 07:51:00,
2015-09-04 03:56:00,69.6,67.2,29.08,North,32767,0.0,0.0,92,0.00,,,0.00,0,Wunderground v.1.15,2015-09-04 07:56:00,
2015-09-04 04:01:00,69.8,67.4,29.08,North,32767,0.0,0.0,92,0.00,,,0.00,0,Wunderground v.1.15,2015-09-04 08:01:00,
2015-09-04 04:07:00,69.7,67.0,29.09,North,32767,0.0,0.0,91,0.00,,,0.00,0,Wunderground v.1.15,2015-09-04 08:07:00,
2015-09-04 04:13:00,69.5,67.1,29.08,North,32767,0.0,0.0,92,0.00,,,0.00,0,Wunderground v.1.15,2015-09-04 08:13:00,
2015-09-04 04:19:00,69.4,67.0,29.08,North,32767,0.0,0.0,92,0.00,,,0.00,0,Wunderground v.1.15,2015-09-04 08:19:00,
2015-09-04 04:24:00,69.3,66.9,29.09,North,32767,0.0,0.0,92,0.00,,,0.00,0,Wunderground v.1.15,2015-09-04 08:24:00,
2015-09-04 04:29:00,69.3,67.2,29.09,North,32767,0.0,0.0,93,0.00,,,0.00,0,Wunderground v.1.15,2015-09-04 08:29:00,
2015-09-04 04:34:00,69.2,66.8,29.09,North,32767,0.0,0.0,92,0.00,,,0.00,0,Wunderground v.1.15,2015-09-04 08:34:00,
2015-09-04 04:39:00,69.2,67.1,29.09,North,32767,0.0,0.0,93,0.00,,,0.00,0,Wunderground v.1.15,2015-09-04 08:39:00,
2015-09-04 04:44:00,69.3,67.2,29.09,North,32767,0.0,0.0,93,0.00,,,0.00,0,Wunderground v.1.15,2015-09-04 08:44:00,
2015-09-04 04:49:00,69.2,67.1,29.09,North,32767,0.0,0.0,93,0.00,,,0.00,0,Wunderground v.1.15,2015-09-04 08:49:00,
2015-09-04 04:54:00,69.1,67.0,29.09,North,32767,0.0,0.0,93,0.00,,,0.00,0,Wunderground v.1.15,2015-09-04 08:54:00,
2015-09-04 04:59:00,69.2,67.1,29.09,North,32767,0.0,0.0,93,0.00,,,0.00,0,Wunderground v.1.15,2015-09-04 08:59:00,
2015-09-04 05:05:00,69.2,67.1,29.08,North,32767,0.0,0.0,93,0.00,,,0.00,0,Wunderground v.1.15,2015-09-04 09:05:00,
2015-09-04 05:10:00,69.2,67.1,29.09,North,32767,0.0,0.0,93,0.00,,,0.00,0,Wunderground v.1.15,2015-09-04 09:10:00,